Regional Weather Roundup
Issued by NWS

Home | Current Version | Previous Version | Text Only | Print | Product List | Glossary On
Versions: 1 2 3 4 5 6 7 8 9 10 11 12 13 14 15 16 17 18 19 20 21 22 23 24 25 26 27 28 29 30 31 32 33 34 35 36 37 38 39 40 41 42 43 44 45 46 47 48 49 50
000
ASUS43 KMPX 290810
RWRMN
WEATHER ROUNDUP FOR MINNESOTA
NATIONAL WEATHER SERVICE TWIN CITIES/CHANHASSEN MN
300 AM CDT TUE JUL 29 2014


NOTE: "FAIR" INDICATES FEW OR NO CLOUDS BELOW 12,000 FEET WITH NO
SIGNIFICANT WEATHER AND/OR OBSTRUCTIONS TO VISIBILITY. N/A MEANS
CURRENT SKY AND/OR WEATHER CONDITIONS ARE NOT AVAILABLE.

MNZ060>063-068>070-290900-
   Twin Cities Metro

CITY           SKY/WX    TMP DP  RH WIND       PRES   REMARKS
TWIN CITIES    CLEAR     62  56  80 NW6       30.13S
ST PAUL        CLEAR     60  55  83 NW5       30.12F
CRYSTAL        CLEAR     62  55  77 NW6       30.12S
BLAINE         CLEAR     61  57  88 W5        30.13S
LAKEVILLE      CLEAR     57  55  94 W5        30.13F
EDEN PRAIRIE   CLEAR     63  56  78 NW5       30.12F
SOUTH ST PAUL  CLEAR     61  55  80 W3        30.12S
LAKE ELMO      FAIR      59  54  82 W6        30.12F
$$
MNZ001>005-007-008-013>017-022>024-027-028-290900-
   Northwest Minnesota

CITY           SKY/WX    TMP DP  RH WIND       PRES   REMARKS
BEMIDJI        CLEAR     55  52  89 W5        30.16S
HALLOCK        CLEAR     55  52  88 CALM      30.17S
ROSEAU         CLEAR     57  54  88 W8        30.15F
WARROAD        CLEAR     57  55  94 W6        30.15S
THIEF RVR FALL CLEAR     59  54  82 CALM      30.17F
CROOKSTON      CLEAR     55  54  94 NW3       30.19
FOSSTON        CLEAR     50  46  87 CALM      30.18S
DETROIT LAKES  CLEAR     57  54  88 CALM      30.19F
MOORHEAD       CLEAR     55  55 100 CALM      30.19F
PARK RAPIDS    CLEAR     50  49  96 W3        30.17S
$$
MNZ006-009>011-018-025>026-290900-
   North Central Minnesota

CITY           SKY/WX    TMP DP  RH WIND       PRES   REMARKS
BAUDETTE       PTCLDY    59  56  89 VRB3      30.14S
FLAG ISLAND    CLEAR     63  55  77 NW13      30.11F
INTL FALLS     CLEAR     55  54  96 CALM      30.10S
WASKISH        CLEAR     63  57  82 NW8       30.14S
BIG FORK       CLEAR     55  54  94 CALM      30.13S
LONGVILLE      CLEAR     55  55 100 CALM      30.14S
GRAND RAPIDS   CLEAR     57  52  82 NW3       30.13S
CRANE LAKE     CLEAR     52  52 100 CALM      30.10F
ORR            CLEAR     52  48  87 CALM      30.09F FOG
COOK           CLEAR     52  52 100 CALM      30.12F
$$
MNZ012-019>021-037-290900-
   Northeast Minnesota

CITY           SKY/WX    TMP DP  RH WIND       PRES   REMARKS
DULUTH         PTCLDY    57  53  86 NW5       30.10S
ELY            LGT RAIN  57  54  88 CALM      30.09F
HIBBING        CLEAR     52  49  89 CALM      30.11F
EVELETH        PTCLDY    55  52  88 CALM      30.12S
DULUTH HARBOR  MOCLDY    64  57  77 W8        30.08F
TWO HARBORS    PTCLDY    55  50  82 CALM      30.06F
SILVER BAY     PTCLDY    57  55  94 NW3       30.04F
GRAND MARAIS     N/A     64  53  67 N13G29    29.99F
G MARAIS ARPRT PTCLDY    55  48  76 NW12      30.04F
$$
MNZ029>031-032-039>041-046>048-054>057-064-290900-
   West Central Minnesota

CITY           SKY/WX    TMP DP  RH WIND       PRES   REMARKS
FERGUS FALLS   CLEAR     55  52  88 CALM      30.19S
WHEATON        CLEAR     55  52  88 W3        30.21S
MORRIS         CLEAR     52  52 100 W5        30.18F
ALEXANDRIA     CLEAR     58  55  90 NW3       30.19F
ELBOW LAKE     FAIR      55  53  96 CALM      30.19S
WADENA         CLEAR     54  52  94 CALM      30.17F
GLENWOOD       CLEAR     55  54  94 W5        30.19S
APPLETON       CLEAR     54  50  87 CALM      30.18F
BENSON         CLEAR     52  52 100 N3        30.19S
ORTONVILLE     CLEAR     55  54  94 NW3       30.19F
MADISON        CLEAR     55  52  88 NW5       30.20S
WILLMAR        FAIR      55  54  94 W3        30.19F
$$
MNZ033>034-036-042>043-049>051-058-059-290900-
   Central Minnesota

CITY           SKY/WX    TMP DP  RH WIND       PRES   REMARKS
ST CLOUD       CLEAR     59  53  80 N3        30.14F
SAUK CENTRE    FAIR      53  51  94 CALM      30.17F
PAYNESVILLE    CLEAR     50  50 100 SW6       30.18S
AITKIN         CLEAR     55  52  88 CALM      30.12F
PINE RIVER     CLEAR     55  52  88 CALM      30.18S
BRAINERD       PTCLDY    59  53  80 NW5       30.15F
STAPLES        CLEAR     54  52  94 W5        30.17S
LONG PRAIRIE   FAIR      55  52  88 W3        30.17F
LITTLE FALLS   CLEAR     54  52  94 CALM      30.16S
LITCHFIELD     CLEAR     61  55  82 NW5       30.17S
BUFFALO        CLEAR     60  54  78 NW3       30.15F
MAPLE LAKE     CLEAR     60  56  85 NW3       30.16S
$$
MNZ037-044-045-052-053-290900-
   East Central Minnesota

CITY           SKY/WX    TMP DP  RH WIND       PRES   REMARKS
PRINCETON      CLEAR     57  54  88 W5        30.14S
MORA           CLEAR     54  52  94 CALM      30.14S
CAMBRIDGE      CLEAR     61  52  72 CALM      30.11S
RUSH CITY      MOCLDY    56  53  91 CALM      30.11F
MOOSE LAKE     CLEAR     59  54  82 N6        30.09S
HINCKLEY       FAIR      59  55  88 NW5       30.12S
CLOQUET        CLEAR     55  54  94 CALM      30.11S
MCGREGOR       CLEAR     55  54  94 CALM      30.14S
$$
MNZ071>073-080-081-089-090-097-098-290900-
   Southwest Minnesota

CITY           SKY/WX    TMP DP  RH WIND       PRES   REMARKS
MONTEVIDEO     CLEAR     55  54  94 NW7       30.19F
GRANITE FALLS  CLEAR     51  50  95 W5        30.20F
CANBY          CLEAR     54  51  89 W6        30.21F
MARSHALL       CLEAR     54  48  82 W8        30.19S
REDWOOD FALLS  CLEAR     55  53  93 W8        30.17F
OLIVIA         CLEAR     55  52  88 NW5       30.17S
PIPESTONE      CLEAR     55  52  88 CALM      30.22S
WINDOM         CLEAR     54  52  94 W5        30.20S
WORTHINGTON    CLEAR     52  48  87 NW6       30.22S
JACKSON        CLEAR     55  50  82 NW5       30.20S
TRACY          CLEAR     58  52  80 W6        30.21S
SLAYTON        CLEAR     52  50  93 CALM      30.22S
$$
MNZ065>067-074>077-082>085-091>093-290900-
   South Central Minnesota

CITY           SKY/WX    TMP DP  RH WIND       PRES   REMARKS
MANKATO        CLOUDY    59  52  77 W6        30.15F
NEW ULM        CLEAR     55  55 100 W5        30.17S
ST JAMES       CLEAR     55  54  94 W3        30.18F
FAIRMONT       CLEAR     57  48  72 NW7       30.18S
GLENCOE        CLEAR     59  54  81 NW3       30.15S
FARIBAULT      CLEAR     63  54  72 NW5       30.14F
OWATONNA       CLEAR     55  52  88 W6        30.15S
WASECA         CLEAR     50  46  87 CALM      30.17S
ALBERT LEA     CLEAR     57  54  88 NW3       30.15F
$$
MNZ078>079-086>088-094>096-290900-
   Southeast Minnesota

CITY           SKY/WX    TMP DP  RH WIND       PRES   REMARKS
ROCHESTER      CLEAR     55  52  89 W8        30.14F
RED WING       CLEAR     55  54  94 CALM      30.10F
STANTON        CLEAR     56  53  89 CALM      30.12S
DODGE CENTER   CLEAR     61  55  82 NW7       30.14S
WINONA         CLEAR     57  54  88 NW3       30.10F
AUSTIN         CLEAR     57  54  88 NW3       30.14S
PRESTON        CLEAR     55  56 100 NW7       30.13F
$$
ABBREVIATIONS USED IN REMARKS
   TC - TEMPERATURES IN CELSIUS
  WCI - WIND CHILL INDEX
   HX - HEAT INDEX
  VSB - VISIBILITY
$$


USA.gov is the U.S. government's official web portal to all federal, state and local government web resources and services.